Tracking 29892 objects as of 21-Nov-2024
HD Live streaming from Space Station
objects crossing your sky now

STARLINK-4486

Track STARLINK-4486 now!
10-day predictions
STARLINK-4486 is classified as:


NORAD ID: 53540
Int'l Code: 2022-101P
Perigee: 545.6 km
Apogee: 548.0 km
Inclination: 53.2 °
Period: 95.4 minutes
Semi major axis: 6917 km
RCS: Unknown
Launch date: August 19, 2022
Source: United States (US)
Launch site: AIR FORCE EASTERN TEST RANGE (AFETR)
Your satellite tracking list
Your tracking list is empty




NASA's NSSDC Master Catalog

Two Line Element Set (TLE):
1 53540U 22101P   24325.59087549  .00000149  00000-0  27440-4 0  9991
2 53540  53.2154  32.7881 0001773  84.0816 276.0378 15.08864016124721
Source of the keplerian elements: AFSPC